Regional Weather Roundup
Issued by NWS

Home | Current Version | Previous Version | Text Only | Print | Product List | Glossary Off
Versions: 1 2 3 4 5 6 7 8 9 10 11 12 13 14 15 16 17 18 19 20 21 22 23 24 25 26 27

000
ASUS45 KTFX 200510
RWRMT
MONTANA REGIONAL WEATHER ROUNDUP
NATIONAL WEATHER SERVICE GREAT FALLS MT
1000 PM MST THU JAN 19 2017

NOTE: "FAIR" INDICATES FEW OR NO CLOUDS BELOW 12000 FEET WITH NO
SIGNIFICANT WEATHER AND/OR OBSTRUCTIONS TO VISIBILITY.

MTZ001>007-043-200600-
WEST OF THE DIVIDE

CITY           SKY/WX    TMP DP  RH WIND       PRES   REMARKS
KALISPELL      FOG       27  25  92 CALM      29.55S VSB 1/4
MISSOULA       FOG       32  32 100 CALM      29.60S VSB 1/2
BUTTE          CLOUDY    25  20  81 NE3       29.54S
MULLAN PASS    CLOUDY    27  23  85 SW6       29.51F WCI  20
ANACONDA         N/A     32  30  93 CALM      29.55S
DEER LODGE       N/A     34  34 100 CALM      29.58S
EUREKA           N/A     39  28  65 SE8       29.54F
HAMILTON         N/A     32  32 100 CALM      29.58S
RONAN            N/A     33  30  89 CALM      29.64R
$$

MTZ008-052>055-200600-
SOUTHWEST MONTANA

CITY           SKY/WX    TMP DP  RH WIND       PRES   REMARKS
BOZEMAN        CLOUDY    31  27  85 CALM      29.54S
DILLON         CLOUDY    35  20  54 S9        29.55F WCI  28
W YELLOWSTONE  LGT SNOW  27  25  93 SW13      29.60F WCI  16
ENNIS          CLOUDY    32  25  74 S15G24    29.61F WCI  22
$$

MTZ009-010-012-014-046-048-049-054-200600-
EAST SLOPES AND CENTRAL MONTANA

CITY           SKY/WX    TMP DP  RH WIND       PRES   REMARKS
CUT BANK       CLOUDY    35  25  66 SW10      29.44F WCI  27
GREAT FALLS    CLOUDY    35  28  75 SW12      29.48S WCI  27
MALMSTROM AFB  CLOUDY    37  30  77 SW12      29.48S WCI  29
HELENA         CLOUDY    32  27  81 CALM      29.54R
AUGUSTA        MOCLDY    34  23  64 MISG      29.47S
BOWMANS CRNR   CLOUDY    34  28  77 S8        29.48R WCI  27
CHOTEAU          N/A     36  25  64 S6        29.49S WCI  31
CONRAD           N/A     36  31  82 SW2       29.53S
POWER          MOCLDY    33  29  83 SW10      29.46S WCI  25
RAYNESFORD     CLOUDY    41  27  57 SW8       29.48R
ULM            CLOUDY    37  30  75 MISG      29.49S
$$

MTZ011-013-016-021-045-047-050-051-200600-
NORTH CENTRAL MONTANA

CITY           SKY/WX    TMP DP  RH WIND       PRES   REMARKS
HAVRE          CLOUDY    36  32  85 SW14      29.44S WCI  27
LEWISTOWN      CLOUDY    37  30  75 S3        29.47S
CHINOOK          N/A     37  32  81 CALM      29.44S
DENTON         CLOUDY    36  31  81 SW18      29.43S WCI  26
FORT BENTON      N/A     37  30  75 MISG      29.48S
GEYSER         CLOUDY    37  29  70 SW9       29.46S WCI  31
GRASS RANGE    CLOUDY    39  36  88 S10       29.44F
JUDITH GAP     MOCLDY    35  28  75 SW14      29.48F WCI  26
ROY            MOCLDY    43  33  69 MISG      29.45S
STANFORD       MOCLDY    37  29  75 SW5       29.47S
WINIFRED       CLOUDY    41  31  68 SW6       29.45S
$$

MTZ017>020-022>027-061-062-200600-
NORTHEAST MONTANA

CITY           SKY/WX    TMP DP  RH WIND       PRES   REMARKS
GLASGOW        PTCLDY    26  22  84 NE6       29.43F WCI  19
JORDAN           N/A     35  31  85 W8        29.45S WCI  29
SIDNEY         CLOUDY    16  14  92 S6        29.44F WCI   7
WOLF POINT     CLOUDY    19  16  88 W5        29.45R
PLENTYWOOD       N/A     25  21  86 CALM      29.40F
POPLAR           N/A     19  16  86 W9        29.45S WCI   9
$$

MTZ028>42-056>058-200600-
SOUTHCENTRAL AND SOUTHEAST MONTANA

CITY           SKY/WX    TMP DP  RH WIND       PRES   REMARKS
BAKER          CLOUDY    21  16  81 N3        29.45S
BILLINGS       CLOUDY    35  27  72 SW9       29.52F WCI  28
LIVINGSTON     CLOUDY    39  25  57 SW20G30   29.51S WCI  29
MILES CITY     CLOUDY    21  16  81 CALM      29.47S
BIG TIMBER     CLOUDY    37  28  70 W14       29.53F WCI  29
FORSYTH          N/A     30  25  80 SW5       29.47F
HARLOWTON      MOCLDY    36  28  75 W7        29.50S WCI  30
LAUREL           N/A     34  23  64 CALM      29.56S
$$

REGIONAL REPORTS...DAKOTAS

CITY           SKY/WX    TMP DP  RH WIND       PRES   REMARKS
WILLISTON      CLOUDY    19  17  92 SW6       29.44R WCI  11
MINOT          CLOUDY    24  20  84 SW5       29.40F
DICKINSON      CLOUDY    19  16  88 W7        29.39F WCI  10
BEACH            N/A     27  23  86 W10       29.45F WCI  17
CROSBY           N/A     19  18  93 S10       29.42S WCI   8
TIOGA            N/A     16  16 100 W3        29.41F
WATFORD CITY     N/A     16  16 100 SW6       29.43S WCI   7
BISMARCK       CLOUDY    13  10  88 SE6       29.48S WCI   4
GRAND FORKS    CLOUDY    35  32  88 S12       29.55S FOG     WCI  27
FARGO          CLOUDY    35  35 100 SE10      29.58S FOG     WCI  27
BUFFALO SD       N/A     31  19  61 W12       29.36F WCI  22
RAPID CITY     CLOUDY    30  19  63 W6        29.42F WCI  24
$$

REGIONAL REPORTS...WYOMING/IDAHO/WASHINGTON

CITY           SKY/WX    TMP DP  RH WIND       PRES   REMARKS
GILLETTE       CLOUDY    31  24  75 W8        29.47F WCI  23
SHERIDAN       CLOUDY    25  20  81 SW10      29.50S WCI  15
BUFFALO WY     CLOUDY    35  19  52 W5        29.49F
CODY           CLOUDY    37  23  56 CALM      29.52F
YELLOWSTONE LA   N/A     23  21  92 CALM      29.60F
IDAHO FALLS    CLOUDY    30  29  96 CALM      29.66S
SALMON         CLOUDY    27  25  93 CALM      29.61F
BOISE          CLOUDY    37  32  82 SE10      29.65F WCI  30
SPOKANE        PTCLDY    33  30  88 SE10      29.56F WCI  25
$$

REGIONAL REPORTS...ALBERTA

CITY           SKY/WX    TMP DP  RH WIND       PRES   REMARKS
EDMONTON       CLEAR     36  21  55 NW8       29.23R WCI  29
CALGARY        PTCLDY    32  18  55 SW5       29.31S
LETHBRIDGE     CLOUDY    37  27  65 SW20      29.39R WCI  27
MEDICINE HAT   MOCLDY    37  28  70 S9G17     29.37S WCI  31
WATERTON GATE    N/A     37  19  48 SW14G28     N/A  WCI  29
MILK RIVER       N/A     36  28  75 SW10        N/A  WCI  28
$$

REGIONAL REPORTS...SASKATCHEWAN

CITY           SKY/WX    TMP DP  RH WIND       PRES   REMARKS
SWIFT CURRENT  CLOUDY    36  30  80 SW14      29.35F WCI  27
REGINA         MOCLDY    28  27  93 E8        29.37F WCI  20
SASKATOON      MOCLDY    36  32  87 S8        29.29F WCI  29
CYPRESS HILLS    N/A     36  23  60 W7          N/A  WCI  30
VAL MARIE        N/A     34  30  86 S2          N/A
ROCKGLEN         N/A     36  30  80 W10         N/A  WCI  28
ASSINIBOIA       N/A     19  18  93 SW3         N/A
$$




USA.gov is the U.S. government's official web portal to all federal, state and local government web resources and services.